Regional Weather Roundup
Issued by NWS

Home | Current Version | Previous Version | Graphics & Text | Print | Product List | Glossary On
Versions: 1 2 3 4 5 6 7 8 9 10 11 12 13 14 15 16 17 18 19 20 21 22 23 24 25 26 27
000
ASUS45 KBOU 270807
RWRCO

WEATHER ROUNDUP FOR COLORADO
NATIONAL WEATHER SERVICE DENVER/BOULDER CO
100 AM MST MON FEB 27 2017

NOTE: "FAIR" INDICATES FEW OR NO CLOUDS BELOW 12000 FEET WITH NO
SIGNIFICANT WEATHER AND/OR OBSTRUCTIONS TO VISIBILITY.

COZ001>005-013-030-031-270900-
...NORTHWEST COLORADO...

CITY           SKY/WX    TMP DP  RH WIND       PRES   REMARKS
CRAIG          CLOUDY    20   8  60 CALM      29.72F
HAYDEN         CLOUDY    25   9  50 S6        29.72S WCI  18
MEEKER         CLOUDY    28  13  53 CALM      29.72F
MOUNT WERNER   NOT AVBL
STEAMBOAT SPGS CLOUDY    11   3  70 CALM      29.74F
WALDEN         NOT AVBL
$$

COZ006>008-011-270900-
...WEST CENTRAL VALLEYS...

CITY           SKY/WX    TMP DP  RH WIND       PRES   REMARKS
GRAND JUNCTION CLOUDY    39  13  34 S22       29.76F
MONTROSE       CLOUDY    32  10  40 SE8       29.81F WCI  25
EAGLE          CLOUDY    22   7  52 E14       29.80F WCI   9
RIFLE          CLOUDY    28  15  58 W5        29.76F WCI  23
DELTA          CLOUDY    37  13  38 NE5       29.81F
NUCLA          MOCLDY    34  18  51 S8G18     29.85F WCI  27
$$

COZ017>023-064>068-270900-
...SOUTHWEST COLORADO...

CITY           SKY/WX    TMP DP  RH WIND       PRES   REMARKS
DURANGO        CLOUDY    28  15  58 N5        29.89F WCI  23
CORTEZ         CLOUDY    37  17  44 SW5       29.86S
PAGOSA SPRINGS CLOUDY    26  11  54 E3        29.90S
TELLURIDE      FAIR      23  10  56 SE10      29.82F WCI  12
WOLF CREEK PAS SNOW       7   5  92 S30G41    29.81F VSB 1/4 WCI -17
$$

COZ009-010-012-014-032>034-037-058>063-270900-
...CENTRAL COLORADO...

CITY           SKY/WX    TMP DP  RH WIND       PRES   REMARKS
ASPEN          MOCLDY    15   5  64 CALM      29.75F
BUENA VISTA    CLOUDY    22   4  46 SE7       29.77S WCI  14
COPPER MTN     FAIR      10  -2  56 MISG      29.69F
BERTHOUD PASS  FAIR       1  -8  66 W22G33    29.63R WCI -21
COTTONWOOD PAS CLOUDY    21   5  49 NW3       29.74S
GUNNISON       FAIR      11   2  67 NE7       29.87F WCI   0
KREMMLING      MOCLDY    19  10  68 SE3       29.77F
LEADVILLE      FAIR       2  -6  69 E9        29.72F WCI -13
MONARCH PASS     N/A      5   1  85 SW29G37   29.83S WCI -19
SALIDA         FAIR      29   1  29 SW13G24   29.87S WCI  19
SUNLIGHT       NOT AVBL
WILKERSON PASS FAIR       9   0  66 SW21G29   29.68S WCI -11
$$

COZ069>075-270900-
...SAN LUIS VALLEY/SANGRE DE CRISTO MOUNTAINS...

CITY           SKY/WX    TMP DP  RH WIND       PRES   REMARKS
ALAMOSA        FAIR      18  11  74 S5        29.86R WCI  11
LA VETA PASS   FAIR      18   7  62 SW21G41   29.73S WCI   1
SAGUACHE       FAIR      14   3  62 NW13      29.86S WCI   0
$$

COZ035-036-038>040-270900-
...NORTHERN COLORADO FRONT RANGE...

CITY           SKY/WX    TMP DP  RH WIND       PRES   REMARKS
DENVER INTL AP FAIR      22   5  48 SW13      29.73F WCI  10
DMNS CITY PARK   N/A     25   8  48 NE5G15    29.74S WCI  19
AURORA         PTCLDY    21   3  46 VRB3      29.74S
FRONT RANGE AP FAIR      23   9  54 S7        29.74S WCI  15
ERIE MUNI ARPT FAIR      16  12  83 S3        29.75S
BOULDER MUN AP FAIR      25  14  63 SE5       29.74R WCI  19
CENTENNIAL     FAIR      21   5  50 VRB3      29.73F
BROOMFIELD     FAIR      27   9  46 CALM      29.74S
FORT COLLINS   FAIR      19  14  81 VRB3      29.75F
LONGMONT       NOT AVBL
$$

COZ041-046-047-076>085-087-088-270900-
...PIKES PEAK/PALMER DIVIDE AND SOUTHERN FOOTHILLS...

CITY           SKY/WX    TMP DP  RH WIND       PRES   REMARKS
COLO. SPRINGS  FAIR      22  -2  35 NE6       29.74F WCI  14
A. F. ACADEMY  FAIR      20  -1  39 CALM      29.72F
SCHRIEVER AFB  FAIR      19   0  44 N9        29.75F WCI   8
ELLICOTT       NOT AVBL
FALCON         FAIR      19  -1  41 N3        29.74F
FORT CARSON    FAIR      30   0  27 S9        29.74F WCI  22
LIMON          FAIR       8   3  80 N7        29.78F WCI  -3
MONUMENT HILL  FAIR      27   3  36 SW9       29.74F WCI  17
TRINIDAD       FAIR      22   2  42 W12       29.79S WCI  10
$$

COZ042>045-048>051-090-091-270900-
...NORTHEAST COLORADO...

CITY           SKY/WX    TMP DP  RH WIND       PRES   REMARKS
GREELEY ARPT   FAIR      17  13  84 NW3       29.77S
AKRON          FAIR      19  10  68 SE10      29.76F WCI   7
BURLINGTON     FAIR      23  10  57 S15       29.82F WCI  10
WRAY           NOT AVBL
STERLING       NOT AVBL
HOLYOKE        FAIR      21  14  73 S5        29.84F WCI  15
FORT MORGAN    FAIR      17  11  76 E3        29.76S
$$

COZ086-089-092>099-270900-
...SOUTHEAST COLORADO...

CITY           SKY/WX    TMP DP  RH WIND       PRES   REMARKS
PUEBLO         FAIR      15  -4  42 CALM      29.77F
LA JUNTA       FAIR      31   8  38 SW9       29.79S WCI  23
LAMAR          FAIR      20   8  60 NE8       29.81S WCI  10
SPRINGFIELD      N/A     20  11  68 S7        29.81F WCI  11
$$




USA.gov is the U.S. government's official web portal to all federal, state and local government web resources and services.